Location: Red Bud (historical)
(37.7759°N, 88.4053°W)
Time: 20:40:27
(UTC+00:00)

Tiangong - Pass Details

Date: 26 June 2021
Orbit: 374 x 386 km, 41.5° (Epoch: 27 July)

Event Time Altitude Azimuth Distance (km) Brightness Sun altitude
Exits shadow 07:41:01 27° 51° (NE) 756 3.1 -24.1°
Drops below altitude 10° 07:42:43 10° 66° (ENE) 1,388 4.5 -24.0°
Sets 07:44:50 0° 72° (ENE) 2,243 5.6 -23.8°
